Buffalo, NY

11:19 AM EDT on May 27, 2017 (GMT -0400)
Buffalo Niagara International

Weather History for KBUF - December, 2014

Change the Weather History Date:

Friday, December 19, 2014

  Actual Average Record
Temperature  
Mean Temperature 27 °F 29 °F  
Max Temperature 29 °F 35 °F 61 °F (1957)
Min Temperature 25 °F 23 °F -6 °F (1875)
Degree Days  
Heating Degree Days 38 36  
Month to date heating degree days 609 631  
Since 1 July heating degree days 1907 1964  
Cooling Degree Days 0 0  
Month to date cooling degree days 0 0  
Year to date cooling degree days 516 544  
Moisture  
Dew Point 20 °F    
Average Humidity 75    
Maximum Humidity 81    
Minimum Humidity 69    
Precipitation  
Precipitation T in 0.12 in 0.83 in (1899)
Month to date precipitation 1.53 2.39  
Year to date precipitation 41.78 38.98  
Snow  
Snow T in 0.90 in 10.10 in (2008)
Month to date snowfall 9.9 15.2  
Since 1 July snowfall 30.4 24.0  
Snow Depth T in    
Sea Level Pressure  
Sea Level Pressure 30.20 in    
Wind  
Wind Speed 9 mph (West)    
Max Wind Speed 15 mph    
Max Gust Speed 19 mph    
Visibility 10 miles    
Events Snow    
T = Trace of Precipitation, MM = Missing Value Source: NWS Daily Summary

Daily Weather History Graph

Daily Weather History Graph

Search for Another Location

Airport or City:

Trip Planner

Search our weather history database for the weather conditions in past years. The results will help you decide how hot, cold, wet, or windy it might be!

Date:

Astronomy

Dec. 19, 2014 Rise Set
Actual Time 7:41 AM EST 4:42 PM EST
Civil Twilight 7:09 AM EST 5:14 PM EST
Nautical Twilight 6:33 AM EST 5:50 PM EST
Astronomical Twilight 5:58 AM EST 6:25 PM EST
Moon 4:51 AM EST (12/19) 3:06 PM EST (12/19)
Length of Visible Light 10h 05m
Length of Day
9h 00m
Waning Crescent, 7% of the Moon is Illuminated
Dec 19
Waning Crescent
Dec 21
New
Dec 28
First Quarter
Jan 4
Full
Jan 13
Last Quarter

Hourly Weather History & Observations

Time (EST) Temp. Windchill Dew Point Humidity Pressure Visibility Wind Dir Wind Speed Gust Speed Precip Events Conditions
12:54 AM 26.6 °F 14.3 °F 21.2 °F 80% 30.08 in 10.0 mi West 16.1 mph - N/A   Overcast
1:54 AM 26.1 °F 14.5 °F 19.9 °F 78% 30.12 in 10.0 mi West 13.8 mph - N/A   Overcast
2:54 AM 26.1 °F 17.6 °F 19.9 °F 78% 30.13 in 10.0 mi West 8.1 mph - N/A   Overcast
3:32 AM 26.1 °F 16.8 °F 19.9 °F 78% 30.10 in 10.0 mi West 9.2 mph - N/A   Overcast
3:54 AM 26.1 °F 16.8 °F 19.9 °F 78% 30.13 in 10.0 mi West 9.2 mph - N/A   Overcast
4:54 AM 26.1 °F 17.6 °F 21.0 °F 81% 30.13 in 10.0 mi NNW 8.1 mph - N/A   Overcast
5:54 AM 25.0 °F 15.5 °F 19.9 °F 81% 30.15 in 10.0 mi NW 9.2 mph - N/A   Overcast
6:54 AM 24.8 °F 16.9 °F 19.4 °F 80% 30.13 in 10.0 mi NW 6.9 mph - N/A Snow Light Snow
7:04 AM 25.0 °F 18.1 °F 19.9 °F 81% 30.14 in 9.0 mi WNW 5.8 mph - 0.00 in Snow Light Snow
7:54 AM 26.1 °F 19.4 °F 21.0 °F 81% 30.18 in 9.0 mi WNW 5.8 mph - 0.00 in Snow Light Snow
8:52 AM 26.6 °F 18.2 °F 19.4 °F 74% 30.17 in 4.0 mi WNW 8.1 mph - 0.00 in Snow Light Snow
8:54 AM 26.1 °F 19.4 °F 19.9 °F 78% 30.20 in 4.0 mi WNW 5.8 mph - 0.00 in Snow Light Snow
9:54 AM 26.1 °F 16.2 °F 19.9 °F 78% 30.22 in 10.0 mi West 10.4 mph - 0.00 in Snow Light Snow
10:54 AM 26.1 °F 16.8 °F 19.9 °F 78% 30.22 in 9.0 mi West 9.2 mph - 0.00 in Snow Light Snow
11:54 AM 27.0 °F 18.0 °F 19.9 °F 75% 30.20 in 10.0 mi West 9.2 mph - 0.00 in Snow Light Snow
12:54 PM 27.0 °F 16.7 °F 19.0 °F 72% 30.19 in 10.0 mi West 11.5 mph - 0.00 in   Mostly Cloudy
1:54 PM 28.0 °F 18.1 °F 19.0 °F 69% 30.20 in 10.0 mi West 11.5 mph - N/A   Mostly Cloudy
2:52 PM 28.4 °F 19.1 °F 19.4 °F 69% 30.18 in 10.0 mi West 10.4 mph - N/A   Mostly Cloudy
2:54 PM 28.0 °F 18.1 °F 19.0 °F 69% 30.22 in 10.0 mi West 11.5 mph - N/A   Mostly Cloudy
3:54 PM 28.0 °F 20.0 °F 19.0 °F 69% 30.22 in 10.0 mi West 8.1 mph - N/A   Mostly Cloudy
4:54 PM 28.0 °F 20.0 °F 19.9 °F 72% 30.24 in 10.0 mi West 8.1 mph - N/A   Mostly Cloudy
5:15 PM 28.0 °F 19.3 °F 19.9 °F 72% 30.21 in 10.0 mi WSW 9.2 mph - N/A   Overcast
5:54 PM 28.9 °F 21.1 °F 19.9 °F 69% 30.26 in 10.0 mi West 8.1 mph - 0.00 in Snow Light Snow
6:54 PM 28.9 °F 19.8 °F 21.0 °F 72% 30.27 in 10.0 mi West 10.4 mph - 0.00 in   Overcast
7:54 PM 28.9 °F 21.9 °F 21.0 °F 72% 30.27 in 10.0 mi West 6.9 mph - N/A   Overcast
8:54 PM 28.9 °F 21.1 °F 21.0 °F 72% 30.28 in 10.0 mi West 8.1 mph - N/A   Overcast
9:54 PM 28.9 °F 19.8 °F 21.0 °F 72% 30.30 in 10.0 mi West 10.4 mph - N/A   Overcast
10:54 PM 28.9 °F 21.9 °F 21.0 °F 72% 30.30 in 10.0 mi West 6.9 mph - N/A   Overcast
11:54 PM 28.9 °F 23.9 °F 21.0 °F 72% 30.29 in 10.0 mi WNW 4.6 mph - N/A   Overcast